Location: Old Broadwell Mill Observatory
(33.8015°N, 85.8137°W)
Time: 03:48:59
(UTC-06:00)

Daily predictions for brighter satellites

Satellite Brightness Start Highest point End
(mag) Time Altitude Azimuth Time Altitude Azimuth Time Altitude Azimuth
CZ-3 R/B 4.2 03:30:21 51° SW 03:31:10 51° SW 03:42:26 10° SE
Cosmos 2237 Rocket 4.1 03:56:09 21° SSE 03:56:09 21° SSE 03:57:54 10° SSE
SL-16 R/B 3.5 03:57:16 35° NE 03:57:43 35° ENE 04:02:52 10° SE
USA 229 DEB 4.0 04:13:19 54° N 04:14:56 69° ENE 04:22:09 10° SE
USA 229 4.0 04:13:22 53° N 04:15:02 68° ENE 04:22:14 10° SE
Centaur AC-42 4.0 04:18:21 18° S 04:18:28 18° S 04:22:42 10° SE
Tsikada Rocket 4.0 04:19:15 60° N 04:20:29 82° E 04:26:46 10° S
NOAA 6 4.3 04:26:17 10° NNE 04:31:27 66° ESE 04:36:35 10° S
Cosmos 1777 Rocket 4.3 04:40:01 10° S 04:45:09 64° ESE 04:50:18 10° NNE
Cosmos 783 Rocket 4.5 04:47:05 62° SW 04:47:05 62° SW 04:51:50 10° S
BREEZE-M DEB (TANK) 3.5 04:49:41 50° SSW 04:49:41 50° SSW 04:52:06 10° SSE
ATLAS 3B CENTAUR R/B 4.3 04:46:50 11° SSW 04:51:22 30° SE 05:02:06 10° E
Tiangong 2 2.5 04:53:42 37° E 04:53:42 37° E 04:55:54 10° ENE
Cosmos 2263 Rocket 4.5 04:53:56 10° SSE 04:58:26 25° ESE 05:02:58 10° NE
ERBS 3.7 04:59:49 30° NNE 05:00:23 32° NE 05:03:30 10° ESE
Cosmos 2151 3.2 04:59:21 16° N 05:02:42 70° E 05:06:56 10° SSE
Cosmos 1743 Rocket 4.5 05:05:00 32° SW 05:05:00 32° SW 05:07:39 10° SSW
IUS-9 SRM-1 3.8 05:02:39 25° SW 05:04:24 31° SSW 05:06:57 10° SE
DELTA 2 R/B (1) 3.5 05:04:53 42° W 05:06:46 77° NNW 05:12:21 10° ENE
NOSS 3-1 (C) 4.4 05:01:36 13° NNW 05:08:44 69° ENE 05:17:06 10° SE
COSMO-SKYMED 1 2.4 05:08:21 10° S 05:12:40 79° WSW 05:16:07 16° NNW
Cosmos 1538 Rocket 3.9 05:13:23 15° NNW 05:17:53 77° WSW 05:23:12 10° S
CZ-2C R/B 4.2 05:16:16 10° NE 05:20:19 31° E 05:24:21 10° SSE
CSL-04 Rocket 3.7 05:16:23 10° NNE 05:21:41 77° ESE 05:26:56 10° S
IDEFIX/ARIANE 42P 4.2 05:16:52 10° NNE 05:21:43 36° E 05:26:30 10° SSE
Cosmos 2233 Rocket 4.5 05:17:39 10° SW 05:23:17 35° WNW 05:29:00 10° NNW
Cosmos 304 Rocket 4.2 05:22:03 32° WNW 05:23:23 39° WSW 05:27:47 10° S
CZ-4 R/B 3.2 05:21:09 10° NNE 05:24:56 35° E 05:28:44 10° SSE
Ariane Rocket 2.9 05:20:21 10° N 05:25:28 80° WNW 05:30:33 10° SSW
Genesis I 3.6 05:24:37 17° NNW 05:27:28 62° ENE 05:31:19 10° SE
Cosmos 2227 4.4 05:22:48 10° SW 05:28:11 47° WNW 05:33:35 10° N
Cosmos 1500 Rocket 4.3 05:28:40 28° WNW 05:29:48 32° W 05:33:46 10° SSW
GPS 2-05 Rocket1 2.8 05:30:13 40° WNW 05:31:08 60° N 05:34:24 10° E
CZ-3 Stage 3 3.0 05:28:58 23° WSW 05:31:42 59° S 05:48:16 10° ESE
Cosmos 1328 4.5 05:31:01 29° WNW 05:31:53 32° W 05:35:28 10° SSW
SL-16 R/B 3.2 05:39:13 20° WNW 05:41:35 26° WSW 05:46:10 10° SSW
OAO 2 Rocket 3.3 05:38:34 22° W 05:41:45 70° SSW 05:46:39 10° ESE
YAOGAN 3 4.5 05:37:59 10° N 05:42:20 76° WNW 05:46:41 10° SSW
ISS -2.7 05:41:57 26° W 05:43:14 38° SW 05:46:16 10° SSE
Sich 1 3.8 05:39:04 10° N 05:43:19 53° E 05:47:30 10° SSE
Cosmos 2034 Rocket 3.9 05:40:56 10° SSW 05:47:06 74° W 05:53:21 10° N
Cosmos 1633 Rocket 3.9 05:44:14 10° N 05:48:29 53° E 05:52:42 10° SSE
Coronas F rocket 3.0 05:46:48 10° NNE 05:48:59 30° E 05:51:09 10° SSE
PAYLOAD A 3.8 05:44:48 10° N 05:49:46 76° WNW 05:54:32 10° SSW
Cosmos 389 Rocket 2.6 05:49:00 10° S 05:52:39 83° E 05:56:21 10° N
Nadezhda 4 Rocket 4.4 05:48:25 10° N 05:54:45 71° E 06:00:59 10° SSE
Cosmos 1703 3.3 05:51:42 10° NNW 05:55:35 59° W 05:59:26 10° S
Meteor 1-28 Rocket 4.0 05:53:32 10° SSW 05:56:53 31° W 06:00:14 10° NW
Gbstr 26 Del rocket 3.7 05:54:34 10° SW 05:59:47 76° NW 06:06:22 10° NE
Cosmos 1271 Rocket 4.3 05:58:25 10° WSW 06:00:40 15° WNW 06:02:56 10° NW
Cosmos 2344 3.6 05:54:21 10° SSW 06:02:05 82° WNW 06:10:23 10° NNE
OPS 8737 4.3 05:59:29 10° SW 06:03:01 60° WNW 06:06:09 10° NNE
Cosmos 773 Rocket 4.5 05:59:08 10° NNW 06:04:04 41° W 06:09:00 10° S
Cosmos 1626 2.1 06:00:37 10° NNW 06:04:18 59° W 06:07:57 10° S
BREEZE-M DEB (TANK) 4.2 05:54:39 10° NW 06:05:31 36° WSW 06:09:09 10° S
Cosmos 2058 4.0 06:02:16 10° NW 06:05:38 24° W 06:09:00 10° SW
Cosmos 2298 Rocket 4.5 06:01:45 10° S 06:07:00 69° ESE 06:12:16 10° NNE
Atlas 2A Centaur Rocket 3.1 06:05:47 10° SW 06:08:12 19° S 06:09:49 10° SE
Cosmos 2112 Rocket 4.1 06:03:25 10° NNW 06:08:47 88° ENE 06:14:08 10° SSE
YAOGAN 1 2.6 06:05:24 10° NNE 06:09:45 86° ESE 06:14:04 10° SSW
DELTA 2 R/B(2) 3.4 06:10:13 10° WSW 06:12:03 61° NNW 06:14:54 10° ENE
Cosmos 1092 Rocket 4.4 06:07:14 10° N 06:13:30 71° E 06:19:40 10° SSE
Cosmos 2221 3.8 06:10:24 10° WSW 06:13:31 19° WNW 06:16:38 10° NNW
Cosmos 1184 Rocket 3.1 06:11:10 10° NNW 06:14:21 45° W 06:17:31 10° S
Cosmos 1340 Rocket 4.2 06:12:06 10° NW 06:14:51 18° W 06:17:37 10° SW
Milstar 3 Cent rocket 3.6 06:11:44 10° WSW 06:18:44 38° S 06:23:19 10° ESE
Cosmos 292 Rocket 4.1 06:14:50 10° NNW 06:19:25 47° WSW 06:24:01 10° S
NOSS 3-1 (A) 4.3 06:11:59 10° NW 06:19:42 59° WSW 06:27:58 10° SSE
Cosmos 1666 Rocket 3.9 06:17:08 10° NNW 06:21:25 46° W 06:25:41 10° SSW
Cosmos 1943 3.2 06:17:16 10° NNW 06:22:59 81° WSW 06:28:39 10° SSE
